Flag for Kazakhstan Weather past 2 weeks in Almaty, Kazakhstan

Now
64 °F

Partly sunny.


Feels Like: 64 °F
Forecast: 51 / 74 °F
Wind: 8 mph from Northeast

Location: Almaty Airport

Current Time: Sep 22, 2014 at 12:24:18 PM

Latest Report: Sep 22, 2014 at 11:30 AM


Visibility: N/A

Pressure: 30.07 "Hg

Humidity: 21%

Dew point: 23 °F

Location of AlmatyLocation

Historic Weather in Almaty — Graph

°F

Almaty temperature yesterday

Maximum temperature yesterday: 66 °F (at 3:00 PM)
Minimum temperature yesterday: 37 °F (at 6:30 AM)
Average temperature yesterday: 52 °F

Past Weeks' High & Low Weather Summary

 TemperatureHumidityPressure
High91 °F (Sep 18, 2:00 PM)88% (Sep 16, 2:00 AM)30.45 "Hg (Sep 16, 2:00 AM)
Low36 °F (Sep 12, 6:30 AM)7% (Sep 9, 2:00 PM)29.68 "Hg (Sep 18, 5:00 AM)
Average59 °F40%30.04 "Hg
* Reported Sep 7 11:00 AM — Sep 22 11:00 AM, Almaty, Weather by CustomWeather, © 2014

Note: Actual official high and low records may vary slightly from our data, if they occured in-between our weather recording intervals... More about our weather records

Advertising

Almaty weather history for previous 24 hours

 ConditionsComfort  
Time TempWeatherWind HumidityBarometerVisibility
11:00 AM
Sep 22
63 °FPartly sunny.6 mph24%30.07 "HgN/A
10:30 AM61 °FPartly sunny.3 mph27%30.07 "HgN/A
10:00 AM59 °FPartly sunny.1 mph29%30.07 "HgN/A
9:30 AM57 °FPartly sunny.1 mph33%30.09 "HgN/A
9:00 AM55 °FScattered clouds.1 mph36%30.07 "HgN/A
8:30 AM52 °FScattered clouds.1 mph41%30.07 "HgN/A
8:00 AM48 °FClear.1 mph58%30.09 "HgN/A
7:30 AM43 °FClear.3 mph71%30.09 "HgN/A
7:00 AM41 °FClear.1 mph70%30.09 "HgN/A
6:30 AM39 °FClear.1 mph75%30.09 "HgN/A
6:00 AM39 °FClear.1 mph75%30.09 "HgN/A
5:30 AM41 °FClear.3 mph76%30.09 "HgN/A
5:00 AM41 °FClear.3 mph76%30.09 "HgN/A
4:30 AM43 °FPassing clouds.6 mph71%30.09 "HgN/A
4:00 AM43 °FPassing clouds.3 mph71%30.09 "HgN/A
3:30 AM43 °FPassing clouds.3 mph71%30.09 "HgN/A
3:00 AM43 °FPassing clouds.3 mph71%30.09 "HgN/A
2:30 AM45 °FPassing clouds.3 mph71%30.09 "HgN/A
2:00 AM46 °FPassing clouds.6 mph71%30.09 "HgN/A
1:30 AM46 °FPassing clouds.3 mph71%30.12 "HgN/A
1:00 AM48 °FPartly cloudy.3 mph71%30.12 "Hg2 mi
12:30 AM48 °FPartly cloudy.No wind66%30.12 "Hg3 mi
12:00 AM52 °FPartly cloudy.3 mph58%30.12 "Hg3 mi
11:30 PM
Sep 21
52 °FPassing clouds.3 mph58%30.12 "Hg3 mi
11:00 PM52 °FPassing clouds.6 mph58%30.12 "Hg2 mi
10:30 PM52 °FPassing clouds.1 mph58%30.12 "Hg2 mi
10:00 PM50 °FPassing clouds.3 mph62%30.15 "Hg2 mi
9:30 PM54 °FPassing clouds.6 mph54%30.12 "Hg1 mi
9:00 PM52 °FPassing clouds.6 mph58%30.15 "Hg1 mi
8:30 PM54 °FPassing clouds.3 mph54%30.15 "Hg1 mi
8:00 PM52 °FPassing clouds.3 mph58%30.12 "Hg1 mi
7:30 PM55 °FPassing clouds.3 mph55%30.12 "Hg1 mi
7:00 PM57 °FPassing clouds.3 mph48%30.12 "Hg1 mi
6:30 PM63 °FPartly cloudy.3 mph34%30.09 "Hg3 mi
6:00 PM64 °FPartly cloudy.3 mph30%30.09 "HgN/A
5:30 PM64 °FBroken clouds.3 mph28%30.09 "HgN/A
5:00 PM64 °FBroken clouds.1 mph28%30.09 "HgN/A
4:30 PM66 °FBroken clouds.1 mph26%30.09 "HgN/A
4:00 PM66 °FBroken clouds.3 mph26%30.09 "HgN/A
3:30 PM64 °FBroken clouds.3 mph28%30.09 "HgN/A
3:00 PM66 °FBroken clouds.3 mph24%30.09 "HgN/A
2:30 PM64 °FBroken clouds.3 mph28%30.09 "HgN/A
2:00 PM64 °FBroken clouds.3 mph28%30.09 "HgN/A
1:30 PM64 °FBroken clouds.3 mph28%30.09 "HgN/A
1:00 PM63 °FBroken clouds.3 mph30%30.12 "HgN/A
12:30 PM64 °FBroken clouds.3 mph26%30.12 "HgN/A
12:00 PM61 °FBroken clouds.3 mph29%30.12 "HgN/A
Weather by CustomWeather, © 2014

See weather overviewHow to use our weather pages